Regional Weather Roundup
Issued by NWS

Home | Current Version | Previous Version | Graphics & Text | Print | Product List | Glossary On
Versions: 1 2 3 4 5 6 7 8 9 10 11 12 13 14 15 16 17 18 19 20 21 22 23 24 25 26 27 28 29 30 31 32 33 34 35 36 37 38 39 40 41 42 43 44 45 46 47 48 49 50
235
ASUS43 KMPX 231210
RWRMN
WEATHER ROUNDUP FOR MINNESOTA
NATIONAL WEATHER SERVICE TWIN CITIES/CHANHASSEN MN
700 AM CDT MON APR 23 2018


NOTE: "FAIR" INDICATES FEW OR NO CLOUDS BELOW 12,000 FEET WITH NO
SIGNIFICANT WEATHER AND/OR OBSTRUCTIONS TO VISIBILITY. N/A MEANS
CURRENT SKY AND/OR WEATHER CONDITIONS ARE NOT AVAILABLE.

MNZ060>063-068>070-231300-
   Twin Cities Metro

CITY           SKY/WX    TMP DP  RH WIND       PRES   REMARKS
TWIN CITIES    MOCLDY    43  37  79 E3        30.25S
6HR MIN TEMP:  42; 6HR MAX TEMP:  49;

ST PAUL        MOCLDY    38  36  92 E3        30.27R
CRYSTAL        FAIR      34  32  92 CALM      30.24R
BLAINE         FAIR      37  36  93 CALM      30.25R
LAKEVILLE      FAIR      34  34 100 CALM      30.25S
EDEN PRAIRIE   FAIR      37  33  85 NE5       30.24R
6HR MIN TEMP:  36; 6HR MAX TEMP:  46;

SOUTH ST PAUL  FAIR      40  34  79 CALM      30.25S
LAKE ELMO      FAIR      34  32  93 CALM      30.27R
$$
MNZ001>005-007-008-013>017-022>024-027-028-231300-
   Northwest Minnesota

CITY           SKY/WX    TMP DP  RH WIND       PRES   REMARKS
BEMIDJI        FAIR      42  33  70 SW6       30.17S
HALLOCK          N/A     34  32  93 S5        30.16R FOG     WCI  30
ROSEAU         FAIR      39  36  87 SW5       30.14R
WARROAD        FAIR      41  37  87 SW6       30.14R
THIEF RVR FALL FAIR      40  37  89 SW9       30.17R
CROOKSTON      FAIR      39  37  93 S6        30.18R FOG
FOSSTON        FAIR      37  34  87 S9        30.19R
DETROIT LAKES  FAIR      39  34  81 CALM      30.21R
MOORHEAD       MOCLDY    37  34  87 S9        30.21R
PARK RAPIDS    FAIR      36  31  82 S5        30.19S
MAHNOMEN       PTSUNNY   39  34  81 S10       30.18R
$$
MNZ006-009>011-018-025>026-231300-
   North Central Minnesota

CITY           SKY/WX    TMP DP  RH WIND       PRES   REMARKS
BAUDETTE       FAIR      45  37  73 SW6       30.13R
FLAG ISLAND    FAIR      43  37  81 W12       30.10R
INTL FALLS     CLOUDY    45  35  68 SW6       30.14R
6HR MIN TEMP:  43; 6HR MAX TEMP:  47;

WASKISH        FAIR      45  36  70 W3        30.16R
BIG FORK       CLOUDY    43  36  75 S6        30.18R
LONGVILLE      FAIR      32  30  93 CALM      30.20S
GRAND RAPIDS   FAIR      39  34  82 S5        30.22R
CRANE LAKE     CLOUDY    45  34  65 S5        30.17S
ORR            CLOUDY    45  30  57 S5        30.15S
COOK           CLOUDY    45  36  70 SW5       30.19R
WALKER         FAIR      42  33  70 SW8       30.18S
$$
MNZ012-019>021-037-231300-
   Northeast Minnesota

CITY           SKY/WX    TMP DP  RH WIND       PRES   REMARKS
DULUTH         FAIR      43  34  70 W8        30.22R
6HR MIN TEMP:  39; 6HR MAX TEMP:  45;

ELY            FAIR      34  27  75 CALM      30.19S
HIBBING        FAIR      28  26  92 CALM      30.20R
EVELETH        FAIR      28  25  89 CALM      30.22R
DULUTH HARBOR  FAIR      34  28  80 CALM      30.24S
TWO HARBORS    FAIR      36  30  80 S3        30.20S
SILVER BAY     FAIR      30  28  93 CALM      30.20S
GRAND MARAIS     N/A     35  27  72 CALM      30.22S
G MARAIS ARPRT FAIR      36  25  64 CALM      30.20S
$$
MNZ029>031-032-039>041-046>048-054>057-064-231300-
   West Central Minnesota

CITY           SKY/WX    TMP DP  RH WIND       PRES   REMARKS
FERGUS FALLS   FAIR      37  32  81 SE6       30.20S
WHEATON        CLEAR     34  30  86 SE6       30.23R FOG     WCI  29
MORRIS         PTCLDY    36  34  93 SE7       30.21R
ALEXANDRIA     FAIR      40  32  73 CALM      30.23R
ELBOW LAKE     FAIR      38  34  85 E6        30.22R
WADENA         FAIR      36  30  80 CALM      30.21R
GLENWOOD       FAIR      37  34  87 CALM      30.23R
APPLETON       CLEAR     34  32  93 CALM      30.22S FOG
BENSON         CLEAR     36  34  93 CALM      30.24S FOG
ORTONVILLE     CLEAR     36  32  87 SE5       30.21R FOG
MADISON        PTCLDY    37  34  87 E5        30.21S FOG
WILLMAR        FAIR      36  34  93 E3        30.25S
$$
MNZ033>034-036-042>043-049>051-058-059-231300-
   Central Minnesota

CITY           SKY/WX    TMP DP  RH WIND       PRES   REMARKS
ST CLOUD       FAIR      32  32 100 CALM      30.24R FOG
6HR MIN TEMP:  30; 6HR MAX TEMP:  38;

SAUK CENTRE    FAIR      32  30  95 CALM      30.23S
PAYNESVILLE    FAIR      32  32 100 CALM      30.24S
AITKIN         FAIR      28  27  93 CALM      30.21S
PINE RIVER     FAIR      30  27  86 CALM      30.24R
BRAINERD       FAIR      30  27  88 CALM      30.22R
STAPLES        FAIR      34  34 100 CALM      30.22R
LONG PRAIRIE   FAIR      32  32 100 CALM      30.24R FOG
LITTLE FALLS   FAIR      30  28  93 CALM      30.24R FOG
LITCHFIELD     FOG       36  36 100 CALM      30.24S VSB 3/4
BUFFALO        FAIR      34  32  92 CALM      30.26R
MAPLE LAKE     FAIR      32  32  99 CALM      30.25S FOG
HUTCHINSON     FAIR      35  35 100 CALM      30.25S FOG
$$
MNZ037-044-045-052-053-231300-
   East Central Minnesota

CITY           SKY/WX    TMP DP  RH WIND       PRES   REMARKS
PRINCETON      FAIR      30  28  93 CALM      30.25S
MORA           FAIR      30  28  93 CALM      30.26S
CAMBRIDGE      FAIR      34  27  75 CALM      30.26R
RUSH CITY      FAIR      31  29  92 CALM      30.26S
MOOSE LAKE     FAIR      30  27  86 CALM      30.22S
HINCKLEY       FAIR      32  30  93 CALM      30.25R
CLOQUET        FAIR      34  27  75 CALM      30.22S
MCGREGOR       FAIR      32  30  93 S3        30.22S
$$
MNZ071>073-080-081-089-090-097-098-231300-
   Southwest Minnesota

CITY           SKY/WX    TMP DP  RH WIND       PRES   REMARKS
MONTEVIDEO     PTCLDY    37  37 100 S3        30.23R FOG
GRANITE FALLS  CLEAR     38  37  93 SE5       30.24S
CANBY          CLEAR     35  33  91 E5        30.22S WCI  31
MARSHALL       CLEAR     37  33  85 SE3       30.23R
REDWOOD FALLS  PTCLDY    36  36 100 CALM      30.23S
OLIVIA         PTCLDY    36  36 100 CALM      30.23R FOG
PIPESTONE      CLEAR    N/A N/A N/A SE7       30.21S
WINDOM         CLEAR     36  21  55 CALM      30.22S
WORTHINGTON    PTCLDY    37  33  85 CALM      30.22S
JACKSON        CLEAR     36  32  87 CALM      30.23R
TRACY          CLEAR     42  36  79 S8        30.21S
SLAYTON        CLEAR     35  32  88 S3        30.23S
$$
MNZ065>067-074>077-082>085-091>093-231300-
   South Central Minnesota

CITY           SKY/WX    TMP DP  RH WIND       PRES   REMARKS
MANKATO        FAIR      39  32  76 SE9       30.25R
NEW ULM        CLEAR     39  37  93 CALM      30.23S FOG
ST JAMES       CLEAR     34  34 100 CALM      30.25R FOG
FAIRMONT       CLEAR     33  31  92 CALM      30.24S
GLENCOE        FAIR      37  37 100 CALM      30.24R FOG
OWATONNA       FAIR      39  30  70 SE7       30.25R
WASECA         FAIR      36  32  87 SE7       30.26R
ALBERT LEA     FAIR      36  28  75 CALM      30.25S
$$
MNZ078>079-086>088-094>096-231300-
   Southeast Minnesota

CITY           SKY/WX    TMP DP  RH WIND       PRES   REMARKS
ROCHESTER      FAIR      39  29  67 SE6       30.26R
6HR MIN TEMP:  37; 6HR MAX TEMP:  49;

RED WING       FAIR      34  28  80 CALM      30.26S
STANTON        FAIR      35  32  90 CALM      30.24S
DODGE CENTER   FAIR      37  28  70 S5        30.25S
WINONA         FAIR      34  32  93 CALM      30.27R
AUSTIN         FAIR      37  28  70 E3        30.25S
PRESTON        FAIR      40  27  57 CALM      30.27R
$$
ABBREVIATIONS USED IN REMARKS
   TC - TEMPERATURES IN CELSIUS
  WCI - WIND CHILL INDEX
   HX - HEAT INDEX
  VSB - VISIBILITY
$$




USA.gov is the U.S. government's official web portal to all federal, state and local government web resources and services.